sat.trackr.live / text

‹ back to catalog

STARLINK-37855

NORAD 69493 · 2026-131R

PAYLOAD ACTIVE UNKNOWN

§ Identity

Operator
Country
US
Launch date
2026-06-11
Launch site
AFWTR
Launch vehicle
Mass (kg)
RCS (m²)

Purposes: comms

External: N2YO · Heavens-Above · Gunter

§ Orbital elements

Epoch: 2026-09-20T00:06:49.212000Z

Period
93.91 min
Inclination
97.2841°
Eccentricity
0.0000964
Mean motion
15.33455932 rev/d
Perigee alt
464.9 km
Apogee alt
466.2 km
Semi-major
6,843.6 km
B*
6.5918e-4
RAAN
283.9108°
Arg perigee
79.2180°
Mean anomaly
280.9171°
Rev number
1,682

§ Raw data

STARLINK-378551 69493U 26131R   26263.00473625  .00021273  00000+0  65918-3 0  99962 69493  97.2841 283.9108 0000964  79.2180 280.9171 15.33455932 16826

JSON: /api/v1/satellites/69493 · /tle

For live sub-satellite position, see the globe view (requires WebGL).

§ Visibility from observer

Set your observer location to see the next 7 days of passes ≥ 10°. The values pass through the URL so the page stays shareable.

No JS? Fill the form by hand. The geolocation button needs JavaScript.